TimeCDT,TemperatureF,Dew PointF,Humidity,Sea Level PressureIn,VisibilityMPH,Wind Direction,Wind SpeedMPH,Gust SpeedMPH,PrecipitationIn,Events,Conditions,WindDirDegrees,DateUTC
12:53 AM,72.0,64.0,76,29.98,10.0,East,6.9,-,N/A,,Clear,80,2013-07-04 05:53:00
1:53 AM,73.0,63.0,71,29.97,10.0,ENE,3.5,-,N/A,,Clear,60,2013-07-04 06:53:00
2:53 AM,72.0,64.0,76,29.98,10.0,Calm,Calm,-,N/A,,Clear,0,2013-07-04 07:53:00
3:53 AM,70.0,64.0,81,29.97,9.0,Calm,Calm,-,N/A,,Clear,0,2013-07-04 08:53:00
4:53 AM,68.0,63.0,84,29.98,9.0,Calm,Calm,-,N/A,,Clear,0,2013-07-04 09:53:00
5:53 AM,66.9,64.0,90,29.98,8.0,ENE,3.5,-,N/A,,Clear,70,2013-07-04 10:53:00
6:53 AM,66.0,64.0,93,29.98,5.0,Calm,Calm,-,N/A,,Clear,0,2013-07-04 11:53:00
7:53 AM,73.0,66.9,81,29.99,7.0,Calm,Calm,-,N/A,,Clear,0,2013-07-04 12:53:00
8:53 AM,78.1,66.9,68,30.01,9.0,Calm,Calm,-,N/A,,Clear,0,2013-07-04 13:53:00
9:53 AM,82.0,66.9,60,30.01,10.0,East,4.6,-,N/A,,Clear,100,2013-07-04 14:53:00
10:53 AM,84.9,64.9,51,29.99,10.0,Calm,Calm,-,N/A,,Clear,0,2013-07-04 15:53:00
11:53 AM,87.1,64.9,48,29.99,10.0,Variable,4.6,-,N/A,,Clear,0,2013-07-04 16:53:00
12:53 PM,90.0,64.9,43,29.98,10.0,North,5.8,-,N/A,,Partly Cloudy,10,2013-07-04 17:53:00
1:53 PM,91.9,62.1,37,29.96,10.0,ENE,4.6,-,N/A,,Partly Cloudy,60,2013-07-04 18:53:00
2:53 PM,91.0,57.9,33,29.94,10.0,Variable,4.6,-,N/A,,Clear,0,2013-07-04 19:53:00
3:53 PM,91.0,55.9,30,29.93,10.0,ESE,3.5,-,N/A,,Clear,110,2013-07-04 20:53:00
4:53 PM,88.0,59.0,37,29.92,10.0,ESE,6.9,-,N/A,,Scattered Clouds,110,2013-07-04 21:53:00
5:53 PM,87.1,61.0,41,29.92,10.0,East,5.8,-,N/A,,Partly Cloudy,100,2013-07-04 22:53:00
6:53 PM,84.9,62.1,46,29.93,10.0,Calm,Calm,-,N/A,,Clear,0,2013-07-04 23:53:00
7:53 PM,82.9,63.0,51,29.93,10.0,ENE,3.5,-,N/A,,Scattered Clouds,60,2013-07-05 00:53:00
8:53 PM,80.1,62.1,54,29.93,10.0,NNE,3.5,-,N/A,,Clear,30,2013-07-05 01:53:00
9:53 PM,75.9,64.9,69,29.95,10.0,Calm,Calm,-,N/A,,Partly Cloudy,0,2013-07-05 02:53:00
10:53 PM,73.9,64.0,71,29.97,9.0,Calm,Calm,-,N/A,,Partly Cloudy,0,2013-07-05 03:53:00
11:53 PM,72.0,64.9,78,29.97,9.0,Calm,Calm,-,N/A,,Clear,0,2013-07-05 04:53:00